Location: Peebles
(55.6412°N, 3.1714°W)
Time: 09:11:46
(UTC+01:00)

Cosmos 1470 - Pass Details

Date: 26 September 2021
Orbit: 520 x 541 km, 82.5° (Epoch: 20 October)

Event Time Altitude Azimuth Distance (km) Brightness Sun altitude
Exits shadow 22:29:30 35° 283° (WNW) 885 4.2 -27.6°
Maximum altitude 22:29:43 35° 291° (WNW) 880 4.2 -27.7°
Drops below altitude 10° 22:33:25 10° 358° (N) 1,818 6.0 -28.0°
Sets 22:35:44 0° 8° (N) 2,717 6.9 -28.3°
